Weather History for Bangkok (Don Mueang), Thailand

Change the Weather History Date:

Wednesday, May 8, 2013

  Actual Average Record
Temperature  
Mean Temperature 91 °F -  
Max Temperature 101 °F 91 °F 104 °F (1997)
Min Temperature 81 °F 78 °F 75 °F (2001)
Cooling Degree Days 26    
Growing Degree Days 41 (Base 50)    
Moisture  
Dew Point 75 °F    
Average Humidity 63    
Maximum Humidity 89    
Minimum Humidity 34    
Precipitation  
Precipitation 0.00 in 0.20 in - ()
Sea Level Pressure  
Sea Level Pressure 29.73 in    
Wind  
Wind Speed 6 mph ()    
Max Wind Speed 15 mph    
Max Gust Speed -    
Visibility 6.2 miles    
Events      
Averages and records for this station are not official NWS values.
T = Trace of Precipitation, MM = Missing Value Source: Averaged Metar Reports

Daily Weather History Graph

Daily Weather History Graph

Search for Another Location

Airport:

Trip Planner

Search our weather history database for the weather conditions in past years. The results will help you decide how hot, cold, wet, or windy it might be!

Date:

Astronomy

May. 08, 2013 Rise Set
Actual Time 5:53 AM ICT 6:35 PM ICT
Civil Twilight 5:30 AM ICT 6:57 PM ICT
Nautical Twilight 5:04 AM ICT 7:24 PM ICT
Astronomical Twilight 4:37 AM ICT 7:50 PM ICT
Moon 4:26 AM ICT (5/8) 5:14 PM ICT (5/8)
Length of Visible Light 13h 27m
Length of Day
12h 42m
Waning Crescent, 3% of the Moon is Illuminated
May 8
Waning Crescent
May 10
New
May 18
First Quarter
May 25
Full
Jun 1
Last Quarter

Hourly Weather History & Observations

Time (ICT) Temp. Heat Index Dew Point Humidity Pressure Visibility Wind Dir Wind Speed Gust Speed Precip Events Conditions
12:00 AM 86.0 °F 95.1 °F 75.2 °F 70% 29.77 in 6.2 mi NW 6.9 mph - N/A   Mostly Cloudy
12:30 AM 86.0 °F 96.9 °F 77.0 °F 74% 29.77 in 6.2 mi NNW 4.6 mph - N/A   Mostly Cloudy
1:00 AM 85 °F - 76 °F 68% 29.78 in 6 mi WNW 4.6 mph - -   Scattered Clouds
1:00 AM 84.2 °F 94.1 °F 77.0 °F 79% 29.77 in 6.2 mi WNW 4.6 mph - N/A   Mostly Cloudy
1:30 AM 84.2 °F 94.1 °F 77.0 °F 79% 29.74 in 6.2 mi SSW 4.6 mph - N/A   Mostly Cloudy
2:00 AM 84.2 °F 94.1 °F 77.0 °F 79% 29.74 in 6.2 mi SW 3.5 mph - N/A   Mostly Cloudy
2:30 AM 84.2 °F 94.1 °F 77.0 °F 79% 29.74 in 6.2 mi South 3.5 mph - N/A   Mostly Cloudy
3:00 AM 84.2 °F 94.1 °F 77.0 °F 79% 29.74 in 6.2 mi SSW 2.3 mph - N/A   Mostly Cloudy
3:30 AM 84.2 °F 94.1 °F 77.0 °F 79% 29.74 in 6.2 mi West 2.3 mph - N/A   Mostly Cloudy
4:00 AM 84.2 °F 94.1 °F 77.0 °F 79% 29.74 in 6.2 mi Calm Calm - N/A   Mostly Cloudy
4:30 AM 84.2 °F 94.1 °F 77.0 °F 79% 29.74 in 6.2 mi North 3.5 mph - N/A   Mostly Cloudy
5:00 AM 84.2 °F 94.1 °F 77.0 °F 79% 29.74 in 6.2 mi NNE 4.6 mph - N/A   Mostly Cloudy
5:30 AM 84.2 °F 94.1 °F 77.0 °F 79% 29.74 in 6.2 mi NNE 3.5 mph - N/A   Mostly Cloudy
6:00 AM 82.4 °F 90.9 °F 77.0 °F 84% 29.77 in 6.2 mi East 4.6 mph - N/A   Mostly Cloudy
6:30 AM 82.4 °F 92.4 °F 78.8 °F 89% 29.77 in 5.6 mi East 4.6 mph - N/A   Mostly Cloudy
7:00 AM 82 °F - 78 °F 86% 29.80 in 6 mi SSE 4.6 mph - -   Mist
7:00 AM 82.4 °F 92.4 °F 78.8 °F 89% 29.77 in 5.6 mi SSE 4.6 mph - N/A   Mostly Cloudy
7:30 AM 82.4 °F 92.4 °F 78.8 °F 89% 29.77 in 6.2 mi East 3.5 mph - N/A   Mostly Cloudy
8:00 AM 86.0 °F 99.3 °F 78.8 °F 79% 29.80 in 6.2 mi East 3.5 mph - N/A   Mostly Cloudy
8:30 AM 87.8 °F 102.5 °F 78.8 °F 75% 29.80 in 6.2 mi South 4.6 mph - N/A   Mostly Cloudy
9:00 AM 89.6 °F 104.7 °F 78.8 °F 70% 29.80 in 6.2 mi South 10.4 mph - N/A   Mostly Cloudy
9:30 AM 91.4 °F 107.2 °F 78.8 °F 66% 29.80 in 6.2 mi SSE 4.6 mph - N/A   Mostly Cloudy
10:00 AM 93.2 °F 107.2 °F 77.0 °F 59% 29.80 in 6.2 mi SSW 6.9 mph - N/A   Mostly Cloudy
10:30 AM 93.2 °F 105.0 °F 75.2 °F 56% 29.80 in 6.2 mi West 4.6 mph - N/A   Mostly Cloudy
11:00 AM 95.0 °F 107.4 °F 75.2 °F 53% 29.77 in 6.2 mi SSE 5.8 mph - N/A   Mostly Cloudy
11:30 AM 96.8 °F 109.6 °F 75.2 °F 50% 29.77 in 6.2 mi WSW 5.8 mph - N/A   Mostly Cloudy
12:00 PM 96.8 °F 109.6 °F 75.2 °F 50% 29.77 in 6.2 mi West 6.9 mph - N/A   Mostly Cloudy
12:30 PM 98.6 °F 111.7 °F 75.2 °F 47% 29.74 in 6.2 mi WNW 2.3 mph - N/A   Mostly Cloudy
1:00 PM 99 °F - 73 °F 34% 29.75 in 6 mi West 6.9 mph - -   Scattered Clouds
1:00 PM 98.6 °F 109.2 °F 73.4 °F 44% 29.74 in 6.2 mi West 6.9 mph - N/A   Mostly Cloudy
1:30 PM 98.6 °F 107.7 °F 71.6 °F 42% 29.71 in 6.2 mi West 10.4 mph - N/A   Mostly Cloudy
2:00 PM 100.4 °F 109.3 °F 71.6 °F 39% 29.68 in 6.2 mi SSW 8.1 mph - N/A   Mostly Cloudy
2:30 PM 100.4 °F 111.9 °F 73.4 °F 42% 29.65 in 6.2 mi West 9.2 mph - N/A   Mostly Cloudy
3:00 PM 100.4 °F 111.9 °F 73.4 °F 42% 29.65 in 6.2 mi NNW 8.1 mph - N/A   Mostly Cloudy
3:30 PM 100.4 °F 109.3 °F 71.6 °F 39% 29.65 in 6.2 mi SSW 15.0 mph - N/A   Mostly Cloudy
4:00 PM 100.4 °F 109.3 °F 71.6 °F 39% 29.65 in 6.2 mi SSW 9.2 mph - N/A   Scattered Clouds
4:30 PM 100.4 °F 109.3 °F 71.6 °F 39% 29.62 in 6.2 mi South 4.6 mph - N/A   Scattered Clouds
5:00 PM 98.6 °F 105.5 °F 69.8 °F 39% 29.62 in 6.2 mi SSW 9.2 mph - N/A   Scattered Clouds
5:30 PM 96.8 °F 103.1 °F 69.8 °F 41% 29.62 in 6.2 mi WSW 11.5 mph - N/A   Scattered Clouds
6:00 PM 95.0 °F 101.3 °F 69.8 °F 44% 29.65 in 6.2 mi SSW 11.5 mph - N/A   Scattered Clouds
6:30 PM 95.0 °F 103.2 °F 71.6 °F 47% 29.65 in 6.2 mi SSW 9.2 mph - N/A   Scattered Clouds
7:00 PM 93 °F - 72 °F 42% 29.68 in 6 mi WSW 11.5 mph - -   Scattered Clouds
7:00 PM 93.2 °F 100.5 °F 71.6 °F 49% 29.68 in 6.2 mi WSW 11.5 mph - N/A   Scattered Clouds
7:30 PM 89.6 °F 98.2 °F 73.4 °F 59% 29.68 in 6.2 mi South 11.5 mph - N/A   Scattered Clouds
8:00 PM 89.6 °F 99.8 °F 75.2 °F 62% 29.68 in 6.2 mi SSW 11.5 mph - N/A   Scattered Clouds
8:30 PM 89.6 °F 102.2 °F 77.0 °F 66% 29.71 in 6.2 mi SSW 11.5 mph - N/A   Scattered Clouds
9:00 PM 89.6 °F 102.2 °F 77.0 °F 66% 29.74 in 6.2 mi SSW 13.8 mph - N/A   Scattered Clouds
9:30 PM 89.6 °F 104.7 °F 78.8 °F 70% 29.74 in 6.2 mi South 10.4 mph - N/A   Scattered Clouds
10:00 PM 89.6 °F 102.2 °F 77.0 °F 66% 29.74 in 6.2 mi SSW 10.4 mph - N/A   Scattered Clouds
10:30 PM 87.8 °F 99.7 °F 77.0 °F 70% 29.77 in 6.2 mi South 6.9 mph - N/A   Scattered Clouds
11:00 PM 87.8 °F 99.7 °F 77.0 °F 70% 29.77 in 6.2 mi South 5.8 mph - N/A   Scattered Clouds
11:30 PM 87.8 °F 102.5 °F 78.8 °F 75% 29.77 in 6.2 mi SSW 9.2 mph - N/A   Scattered Clouds